Weather History for Laramie, WY

Change the Weather History Date:

Thursday, January 3, 2013

  Actual Average Record
Temperature  
Mean Temperature 4 °F 22 °F  
Max Temperature 17 °F 33 °F 50 °F (1981)
Min Temperature -9 °F 10 °F -32 °F (1974)
Degree Days  
Heating Degree Days 61 43  
Month to date heating degree days 182 130  
Since 1 July heating degree days 3327 3803  
Cooling Degree Days 0 0  
Month to date cooling degree days 0 0  
Year to date cooling degree days 0 0  
Moisture  
Dew Point -6 °F    
Average Humidity 70    
Maximum Humidity 87    
Minimum Humidity 53    
Precipitation  
Precipitation 0.00 in 0.01 in 0.79 in (1949)
Month to date precipitation T 0.03  
Year to date precipitation T 0.03  
Sea Level Pressure  
Sea Level Pressure 30.53 in    
Wind  
Wind Speed 6 mph (ESE)    
Max Wind Speed 13 mph    
Max Gust Speed 13 mph    
Visibility 10 miles    
Events      
T = Trace of Precipitation, MM = Missing Value Source: NWS Daily Summary

Daily Weather History Graph

Daily Weather History Graph

Search for Another Location

Airport:

Trip Planner

Search our weather history database for the weather conditions in past years. The results will help you decide how hot, cold, wet, or windy it might be!

Date:

Astronomy

Jan. 03, 2013 Rise Set
Actual Time 7:28 AM MST 4:46 PM MST
Civil Twilight 6:57 AM MST 5:17 PM MST
Nautical Twilight 6:23 AM MST 5:51 PM MST
Astronomical Twilight 5:49 AM MST 6:25 PM MST
Moon 11:29 PM MST (1/3) 10:37 AM MST (1/3)
Length of Visible Light 10h 19m
Length of Day
9h 17m
Waning Gibbous, 65% of the Moon is Illuminated
Jan 3
Waning Gibbous
Jan 4
Last Quarter
Jan 11
New
Jan 18
First Quarter
Jan 26
Full

Hourly Weather History & Observations

Time (MST) Temp. Windchill Dew Point Humidity Pressure Visibility Wind Dir Wind Speed Gust Speed Precip Events Conditions
12:53 AM -2.9 °F -15.0 °F -9.0 °F 75% 30.45 in 10.0 mi SSW 5.8 mph - N/A   Clear
1:53 AM -4.0 °F -12.4 °F -9.0 °F 79% 30.48 in 10.0 mi ESE 3.5 mph - N/A   Clear
2:53 AM -6.0 °F -22.6 °F -11.0 °F 79% 30.49 in 10.0 mi SE 9.2 mph - N/A   Clear
3:53 AM -7.1 °F -21.4 °F -13.0 °F 75% 30.51 in 10.0 mi SSE 6.9 mph - N/A   Clear
5:53 AM -7.1 °F -22.8 °F -11.9 °F 79% 30.54 in 10.0 mi SSE 8.1 mph - N/A   Clear
6:53 AM -6.0 °F -23.6 °F -11.0 °F 79% 30.54 in 10.0 mi SE 10.4 mph - N/A   Clear
7:53 AM -8.0 °F -28.0 °F -13.0 °F 79% 30.56 in 10.0 mi SE 12.7 mph - N/A   Clear
8:53 AM -2.9 °F - -9.9 °F 72% 30.55 in 10.0 mi North - - N/A   Clear
9:53 AM 1.9 °F -12.9 °F -6.0 °F 69% 30.54 in 10.0 mi SSE 9.2 mph - N/A   Clear
10:53 AM 8.1 °F -3.2 °F -0.9 °F 67% 30.51 in 10.0 mi SE 6.9 mph - N/A   Clear
11:53 AM 12.0 °F 2.7 °F 1.9 °F 64% 30.48 in 10.0 mi SE 5.8 mph - N/A   Clear
12:53 PM 16.0 °F 10.4 °F 1.9 °F 54% 30.44 in 10.0 mi ENE 3.5 mph - N/A   Clear
1:53 PM 9.0 °F -2.2 °F 1.9 °F 73% 30.49 in 10.0 mi NNW 6.9 mph - N/A   Clear
2:53 PM 10.0 °F 1.8 °F -0.0 °F 64% 30.52 in 10.0 mi North 4.6 mph - N/A   Clear
3:53 PM 10.9 °F -0.8 °F 1.0 °F 64% 30.53 in 10.0 mi NNE 8.1 mph - N/A   Clear
4:53 PM 9.0 °F -2.2 °F -0.0 °F 67% 30.51 in 10.0 mi NE 6.9 mph - N/A   Clear
5:53 PM 1.9 °F -5.6 °F -2.9 °F 80% 30.59 in 10.0 mi NNW 3.5 mph - N/A   Clear
6:53 PM 3.0 °F -6.4 °F -2.9 °F 76% 30.59 in 10.0 mi NNE 4.6 mph - N/A   Clear
7:53 PM -2.9 °F - -6.0 °F 87% 30.63 in 10.0 mi Calm Calm - N/A   Clear
8:53 PM -5.1 °F - -9.0 °F 83% 30.60 in 10.0 mi Calm Calm - N/A   Clear
9:53 PM -6.0 °F - -9.9 °F 83% 30.58 in 10.0 mi Calm Calm - N/A   Clear
10:53 PM -2.0 °F - -6.0 °F 83% 30.53 in 10.0 mi Calm Calm - N/A   Clear
11:53 PM -2.0 °F - -8.0 °F 76% 30.50 in 10.0 mi Calm Calm - N/A   Clear